Temp
19 19 19 19 19 19 19 19 19 19 19 18 18 18 18 18 18 18 18 18 18 17 17 17 17 17 17 17 17 17 17 17 17 17 17 17 17 17 17 17 17 17
19 19 19 19 19 19 19 19 19 19 19 19 19 18 18 18 18 18 18 18 18 18 18 17 17 17 17 17 17 17 17 17 16 16 16 17 17 17 17 17 17 17
19 18 19 19 19 19 19 19 19 19 19 18 18 18 18 18 18 18 18 18 18 18 18 18 17 17 17 17 17 17 17 17 17 16 16 16 16 16 17 17 17 17
17 17 18 18 18 18 18 19 19 19 19 18 18 18 18 18 18 18 18 18 18 18 18 18 18 18 17 17 17 17 17 17 17 17 16 16 16 16 16 16 16 17
17 17 18 17 17 17 18 18 18 18 18 18 18 18 18 18 18 18 18 18 18 18 18 18 18 18 18 17 17 17 17 17 17 17 17 17 16 16 16 16 16 16
17 17 17 17 16 17 17 17 17 17 17 17 17 17 18 18 18 18 18 18 18 18 18 18 18 18 18 18 17 17 17 17 17 17 17 17 17 17 16 16 16 17
17 17 17 17 16 16 16 16 17 17 17 17 17 17 17 18 18 18 17 17 17 17 18 18 18 18 18 18 18 17 17 17 17 17 17 17 17 17 17 17 17 17
16 16 16 16 16 16 16 16 16 16 17 16 16 16 16 17 17 17 17 16 16 17 17 18 18 18 18 18 18 18 17 17 17 17 17 17 17 17 17 17 17 17
16 16 16 16 15 15 15 15 15 15 16 16 16 16 16 16 16 16 16 16 16 16 17 17 17 17 17 17 17 17 17 17 17 17 17 16 16 16 16 16 16 16
16 16 15 15 15 15 15 15 15 15 15 15 15 15 16 15 15 15 16 16 16 16 16 17 17 17 16 16 16 16 16 16 16 16 16 16 15 15 15 15 15 15
15 15 15 15 15 15 15 15 15 15 15 15 15 15 15 15 15 15 15 15 15 15 15 16 16 16 15 15 16 16 16 15 15 15 15 15 15 15 15 14 14 14
15 15 15 15 15 15 15 15 15 15 15 15 15 15 15 15 15 15 15 15 15 15 15 15 15 15 15 15 15 15 15 15 15 15 15 14 14 14 14 14 14 14
15 15 15 15 15 15 15 15 15 15 15 15 15 16 16 15 15 15 15 15 15 15 15 15 14 14 14 14 14 14 14 14 14 14 14 14 14 14 14 14 14 13
16 16 15 15 15 15 15 15 15 15 15 15 15 15 15 15 15 15 15 15 15 15 15 15 15 14 14 14 14 14 14 14 14 14 14 14 14 14 13 13 13 13
16 16 16 16 16 15 15 15 15 15 15 15 15 15 15 15 15 15 15 15 15 15 15 15 15 14 14 14 14 14 14 14 13 13 13 13 13 13 13 13 13 13
16 15 15 15 15 15 15 15 15 15 15 15 15 15 15 15 15 15 15 15 14 14 14 14 13 13 13 13 13 13 13 13 13 13 13 13 13 13 13 13 13 13
15 15 15 15 15 15 15 15 14 14 14 14 14 14 14 14 14 14 13 13 13 13 13 13 13 13 13 13 13 13 13 13 13 12 12 12 12 12 12 12 12 12
15 15 15 15 15 15 15 14 14 14 14 14 14 13 13 13 13 13 13 13 13 13 13 13 13 13 13 13 13 13 13 13 12 11 11 12 12 12 12 12 12 12
15 15 14 14 14 14 14 14 14 14 13 13 13 13 13 12 12 13 13 13 13 13 13 13 13 13 13 13 13 14 14 13 11 10 11 11 12 12 12 12 12 12
15 14 14 13 13 13 14 13 13 13 13 12 12 12 12 12 12 12 13 12 13 12 12 13 13 13 13 13 13 13 13 12 10 10 11 11 11 11 11 11 12 12
14 14 13 13 13 13 13 13 13 13 12 12 12 12 12 12 12 12 12 12 12 12 12 12 12 12 13 13 13 12 11 10 10 10 10 10 10 11 11 11 11 11
14 14 14 14 14 13 13 13 13 13 13 13 12 12 12 12 12 12 12 12 12 12 12 12 12 12 12 12 13 12 10 9 9 9 9 10 10 10 10 11 11 11
14 14 14 14 14 14 13 13 13 13 13 13 13 13 12 12 12 12 12 12 12 12 12 12 11 11 12 12 12 12 11 9 9 8 9 10 10 10 10 11 10 10
14 14 14 14 14 14 13 13 13 13 13 13 13 13 12 12 12 12 12 12 12 12 11 11 11 11 11 11 11 12 11 11 9 9 9 10 10 10 10 10 10 10
14 14 14 14 14 14 14 13 13 13 13 13 13 13 13 12 12 12 12 12 12 11 11 11 11 11 11 11 11 11 11 11 10 10 10 10 10 10 10 10 10 10
14 14 14 14 14 14 14 14 14 13 13 13 13 13 13 13 12 12 12 12 12 12 11 11 11 11 11 11 11 11 11 11 11 11 11 10 10 10 10 10 10 10
Height
801 801 802 803 804 805 806 806 807 808 809 809 810 810 811 811 812 813 813 813 813 813 814 814 815 815 816 816 817 817 818 818 818 819 819 819 820 820 821 821 821 822
800 800 801 802 803 804 805 805 806 807 807 808 808 809 809 810 811 811 812 812 812 812 812 813 813 814 815 815 815 816 816 816 816 817 817 818 818 819 819 820 820 820
800 800 801 802 802 803 804 805 805 805 806 807 807 807 808 808 809 810 810 810 810 810 810 811 812 813 813 814 814 814 814 814 815 815 816 816 816 817 817 818 818 819
799 800 800 801 802 802 803 804 804 804 805 805 806 806 806 807 807 807 808 808 809 809 809 809 810 811 812 813 813 813 813 813 813 814 814 814 815 815 815 816 817 817
798 798 799 800 802 803 802 802 803 804 804 805 805 805 805 805 805 805 805 806 806 807 807 808 808 809 810 811 812 812 812 812 812 812 813 813 813 813 814 814 815 815
796 796 798 799 801 802 801 801 802 803 803 803 803 803 803 803 803 803 804 804 804 805 805 806 806 807 809 809 810 810 810 810 810 811 811 811 812 812 812 813 813 813
795 795 796 797 798 800 800 801 802 801 801 801 802 801 801 801 801 801 802 802 802 802 803 804 804 805 807 807 807 807 807 808 808 809 809 809 810 810 811 811 811 811
794 794 795 796 796 798 799 800 801 800 799 800 800 800 799 799 799 799 799 800 801 800 801 801 802 803 804 805 805 805 805 805 806 806 806 807 807 808 808 809 809 809
793 793 794 795 796 797 799 799 799 799 798 798 798 798 798 797 797 797 797 798 798 798 799 800 800 801 801 802 802 802 802 804 804 804 804 805 805 805 806 806 807 806
792 793 794 795 796 797 797 797 797 797 797 797 796 796 796 796 796 796 796 796 796 797 798 798 798 799 800 800 800 800 801 802 803 803 802 802 802 803 803 804 804 804
792 792 793 794 794 794 795 795 795 795 795 795 795 795 795 794 794 794 794 794 795 796 796 797 797 798 798 799 799 798 798 799 800 800 799 799 799 799 800 800 800 800
791 792 792 792 792 793 793 793 793 793 793 793 793 793 793 793 793 793 793 793 794 794 795 795 796 796 797 797 797 796 796 796 796 796 796 796 796 796 796 796 796 797
791 791 791 791 791 792 792 792 792 792 792 791 791 791 791 792 792 792 792 793 793 793 794 794 795 795 795 795 795 795 795 795 794 795 794 794 794 794 794 794 794 795
791 791 791 791 791 791 791 792 792 791 791 791 791 791 791 791 791 791 792 792 793 793 793 794 794 794 794 794 794 794 794 793 793 793 793 793 793 792 792 792 792 793
791 791 791 791 791 791 791 791 791 791 791 791 791 791 791 791 791 791 792 793 793 793 793 793 793 793 793 793 793 793 792 792 792 792 791 791 791 790 790 791 791 791
792 792 792 792 792 792 792 792 792 792 792 791 791 791 791 791 792 792 793 794 794 794 794 794 793 793 793 792 792 792 791 791 791 790 790 789 789 789 789 790 790 790
792 792 792 792 792 793 793 792 792 792 792 792 792 792 792 793 793 794 795 795 795 795 794 794 794 793 793 792 792 791 790 790 789 789 788 788 788 788 789 789 790 790
793 793 794 794 794 794 793 793 793 793 793 793 793 794 794 795 795 795 795 796 795 795 795 794 794 793 792 792 791 790 789 789 788 788 788 788 788 789 789 789 790 790
794 794 795 795 795 795 795 795 795 794 794 795 795 796 796 796 796 796 796 796 796 795 795 794 793 793 792 791 790 789 788 787 787 788 788 789 789 789 789 789 789 789
796 796 796 797 797 797 797 797 796 796 796 797 797 797 797 797 797 796 796 796 796 795 795 794 793 792 791 790 789 788 787 787 787 788 789 789 790 790 790 789 789 789
799 799 799 799 799 799 798 798 798 798 798 798 798 798 798 798 798 797 797 797 796 796 795 794 793 792 791 790 789 788 788 788 789 789 790 790 790 790 790 790 790 789
802 801 801 801 800 800 800 800 800 800 800 800 800 800 800 800 799 799 799 798 797 796 795 794 794 793 792 791 790 790 790 790 790 791 791 791 791 791 791 790 790 789
803 803 802 802 802 802 802 802 802 802 803 803 803 802 802 802 801 801 801 800 799 798 797 796 795 795 794 793 793 792 791 791 791 791 792 792 792 792 791 791 791 790
804 804 804 804 804 804 804 804 804 805 805 804 804 804 803 803 803 802 802 801 801 800 799 799 798 797 796 795 794 794 793 792 792 792 793 793 793 792 792 792 792 791
806 806 806 806 805 805 805 805 805 805 805 805 805 804 804 803 803 803 802 802 802 801 801 800 799 798 797 797 796 795 794 794 793 794 793 793 793 793 793 793 793 792
807 807 807 807 806 806 806 806 806 805 805 805 805 805 804 804 804 803 803 802 802 802 801 801 800 800 799 798 797 796 796 795 795 795 794 794 794 794 794 794 793 793
Wind_Speed
17 16 17 18 17 16 15 14 13 14 15 15 16 16 16 16 15 13 11 9 7 7 6 6 5 6 8 9 10 11 11 11 10 10 9 9 9 10 10 10 10 9
18 18 19 18 18 17 16 14 14 15 15 16 17 18 18 18 17 16 14 12 10 9 8 8 7 7 8 9 11 12 12 12 12 12 11 11 10 11 11 11 11 11
18 18 19 19 19 18 17 15 14 14 15 17 17 18 19 20 19 19 18 16 13 12 11 10 10 10 10 10 11 12 12 12 12 13 13 13 13 13 12 12 12 12
16 17 18 19 20 19 17 16 15 15 16 17 17 17 18 19 19 19 19 18 17 15 14 13 13 13 13 13 13 12 12 12 11 11 12 13 13 14 14 13 13 13
19 19 19 19 19 18 17 17 16 15 16 16 16 16 16 16 16 16 16 17 18 18 17 16 15 15 15 16 16 16 14 13 12 11 12 12 12 12 13 14 15 16
21 22 22 20 19 18 19 18 14 14 16 15 14 14 14 13 13 14 14 14 15 17 18 18 18 17 17 17 18 19 18 16 15 13 13 13 12 12 12 13 15 16
21 21 21 20 18 17 17 15 12 14 16 14 11 10 10 11 12 11 11 12 14 15 16 17 18 18 18 18 19 19 20 20 19 17 17 16 15 14 14 14 15 15
17 17 16 16 16 15 14 13 12 14 16 15 12 10 8 8 10 11 12 14 14 14 15 15 16 17 18 19 20 20 20 19 19 20 20 20 20 19 18 17 18 19
13 12 11 13 13 12 12 12 12 14 15 14 14 12 9 8 9 10 11 12 12 13 14 15 16 16 17 18 20 21 21 19 19 20 20 19 21 22 22 21 21 22
8 8 9 10 9 7 7 8 8 10 9 8 8 7 7 8 9 9 9 11 11 11 12 14 15 15 14 15 16 18 18 17 18 20 20 21 23 24 24 25 24 25
5 6 6 5 4 3 3 3 3 4 3 3 3 2 2 4 6 7 7 8 9 9 9 10 11 11 10 10 11 12 12 12 14 16 18 20 22 23 23 25 26 26
2 1 1 1 0 1 2 2 2 1 1 1 2 2 1 2 3 4 5 5 6 7 8 9 8 7 7 8 9 9 10 10 11 12 13 14 16 18 18 20 22 23
2 3 3 4 3 3 3 3 3 3 2 2 2 2 2 2 2 3 4 3 3 3 5 6 6 7 8 9 10 11 11 12 12 13 13 13 14 14 13 14 17 18
5 5 5 5 4 3 3 3 4 3 3 3 3 2 2 2 2 3 4 4 3 2 1 3 5 6 7 8 9 9 9 10 11 11 12 12 12 12 11 11 12 13
10 9 8 8 7 7 6 6 6 6 6 6 6 6 5 5 5 5 5 4 4 3 2 2 3 4 5 6 6 7 7 8 9 9 10 10 10 10 10 10 10 10
14 13 13 13 13 12 11 10 9 9 9 9 9 9 8 8 7 6 5 4 3 3 2 0 2 2 4 5 7 8 8 8 8 8 8 8 8 8 9 9 8 8
16 15 15 14 14 13 12 12 11 11 11 11 11 10 9 8 7 7 7 6 5 4 3 3 3 4 5 6 7 8 9 9 8 7 7 7 7 7 7 7 7 8
16 15 14 13 13 12 12 11 11 11 12 12 11 11 9 8 8 9 9 8 7 7 6 6 5 6 6 6 7 7 8 8 7 6 7 6 5 5 5 5 5 6
15 14 13 13 12 12 12 11 11 12 13 13 13 12 10 10 10 10 10 10 9 9 9 9 9 9 8 8 8 8 8 7 6 4 4 3 3 3 3 3 4 5
15 15 14 14 14 14 13 13 13 12 13 13 12 12 12 12 12 12 13 13 12 11 11 11 12 13 12 11 10 8 8 7 7 5 4 3 4 4 5 6 7 7
17 17 17 16 16 16 16 15 15 14 13 13 12 13 14 14 15 16 16 15 15 14 13 14 15 15 15 14 13 10 8 8 7 5 4 4 5 5 5 5 5 5
19 19 19 18 18 18 18 17 17 16 15 14 14 15 15 16 16 16 16 16 16 16 16 15 15 15 15 16 14 11 8 6 5 4 5 5 4 4 4 4 5 6
17 18 18 18 18 18 17 16 15 15 14 14 14 14 14 14 14 14 14 15 15 16 16 15 14 14 14 14 15 13 10 8 7 6 5 5 4 4 5 7 8 8
14 14 15 15 15 15 14 13 12 12 13 12 12 12 12 11 11 11 12 12 13 14 14 14 13 13 12 12 12 12 11 10 9 8 7 6 7 7 8 8 9 9
9 10 11 11 11 11 10 10 9 9 9 9 9 9 8 8 7 8 8 9 9 10 10 10 11 11 11 11 10 9 9 9 8 7 8 8 8 8 8 9 10 10
5 5 6 7 8 7 7 7 6 5 5 5 5 4 4 3 3 4 4 5 5 6 6 7 7 8 9 9 9 8 7 6 5 6 7 8 7 8 8 8 9 9
Wind_Direction
229 227 225 226 228 229 229 232 237 243 247 250 252 253 254 254 249 240 236 233 229 235 246 250 254 257 253 251 253 257 260 264 265 265 268 264 255 249 250 255 257 258
229 228 228 229 232 234 234 237 244 249 253 256 259 262 262 261 257 249 243 238 235 238 243 246 247 246 250 252 254 258 262 266 266 264 262 260 256 252 251 253 255 256
229 228 229 233 238 240 240 242 248 253 257 260 262 265 266 265 262 256 252 247 245 245 245 249 252 249 248 250 253 256 259 263 267 267 266 262 255 250 249 249 251 255
233 231 232 237 243 246 244 245 250 255 258 261 265 269 268 267 266 261 257 254 253 254 254 253 254 255 253 250 251 253 253 254 259 265 269 268 262 254 249 248 250 255
240 240 240 243 249 254 252 249 253 261 265 267 270 271 269 268 269 266 262 259 257 258 259 259 259 259 259 254 250 250 250 251 255 260 268 273 274 267 257 252 254 258
244 245 246 247 250 254 257 255 256 264 268 270 271 271 268 268 270 271 272 272 271 267 264 263 263 264 264 262 256 251 249 251 254 258 264 271 276 277 271 263 262 264
248 248 247 247 246 247 254 258 259 261 261 261 264 267 267 268 267 269 273 274 276 282 281 274 270 268 267 265 261 256 252 252 255 258 261 266 270 272 273 271 269 269
240 240 240 245 246 244 248 253 254 258 260 258 258 263 266 270 270 270 274 272 268 276 285 284 280 277 273 267 263 260 256 254 257 261 263 265 268 270 273 275 274 271
233 236 235 240 242 240 247 256 257 258 261 260 261 265 267 271 275 277 281 279 269 268 275 278 278 279 279 274 267 264 261 256 256 261 267 272 273 273 275 279 278 276
246 248 243 242 243 245 259 270 267 262 264 268 270 273 272 272 278 282 285 281 273 273 278 279 276 275 279 282 278 276 273 267 262 262 267 273 274 273 275 278 279 278
247 247 247 254 252 254 270 272 259 256 265 284 292 295 284 285 291 297 295 283 275 279 286 289 286 279 279 281 280 281 283 280 274 270 271 273 273 274 275 277 277 274
230 238 286 334 314 19 13 14 37 41 358 327 335 1 1 334 329 323 311 293 281 281 286 293 294 284 274 269 267 272 278 280 280 278 279 279 278 279 280 280 278 276
84 70 62 59 57 54 43 39 52 51 26 12 7 4 10 9 356 345 336 323 295 273 276 282 281 273 267 265 267 274 278 279 277 274 275 279 282 285 288 288 285 281
97 87 77 73 73 79 75 67 70 71 60 53 42 35 44 38 22 14 6 0 4 12 338 291 271 265 266 272 279 285 286 284 279 276 279 281 284 288 292 295 295 293
91 89 84 79 76 79 81 81 81 79 74 69 63 61 57 45 35 29 17 5 2 5 359 306 271 269 278 287 293 293 288 284 279 279 284 286 289 293 296 300 301 299
86 83 80 77 74 74 75 76 76 74 73 70 65 61 57 53 54 59 62 60 49 52 64 11 293 305 314 307 301 295 289 284 282 283 288 295 302 305 303 304 305 302
81 77 76 74 74 75 75 73 73 71 70 67 65 66 68 69 73 74 70 61 49 44 36 14 351 336 324 313 305 301 299 296 291 293 305 315 317 318 318 319 322 323
80 80 80 80 79 80 78 75 75 75 74 72 71 74 75 74 73 70 65 57 49 42 33 25 16 360 345 336 328 324 321 314 309 318 329 336 339 335 330 325 318 314
71 74 75 75 73 74 74 71 70 72 75 77 79 81 82 82 81 78 72 64 54 46 38 32 26 15 4 357 351 349 346 342 351 4 1 9 13 344 331 338 337 329
60 62 64 63 64 67 70 69 68 71 75 80 86 90 90 89 86 79 72 63 54 47 41 35 31 24 16 11 6 4 6 18 39 56 58 45 23 5 6 2 350 341
67 67 68 69 69 69 70 70 72 75 78 81 85 87 86 84 80 74 69 62 56 50 45 41 38 33 28 24 22 23 32 47 62 73 63 43 26 19 16 3 356 4
77 76 74 73 71 70 69 70 71 71 72 73 76 80 81 79 74 69 62 57 53 48 46 45 42 37 35 34 32 35 48 65 73 69 59 53 45 33 35 46 54 56
78 76 75 72 70 69 69 70 69 68 68 70 73 78 78 74 69 64 57 52 49 47 45 44 43 40 39 39 38 40 51 68 81 82 77 74 71 67 72 76 72 66
75 72 72 72 70 70 70 70 70 71 71 73 74 76 75 72 67 62 57 51 47 46 44 42 43 42 40 41 44 45 51 64 77 87 92 90 86 81 78 75 72 68
79 71 68 68 68 70 70 66 64 65 67 69 70 68 68 67 62 53 50 49 45 45 45 44 46 48 47 47 50 50 54 63 75 91 97 93 89 85 79 74 71 67
84 71 61 59 60 61 60 57 52 48 49 51 53 53 53 50 44 32 29 32 35 38 40 40 45 52 55 54 55 57 60 67 83 96 95 90 86 83 80 74 67 62